Regional Weather Roundup
Issued by NWS Sterling, VA

Home | Current Version | Previous Version | Graphics & Text | Print | Product List | Glossary On
Versions: 1 2 3 4 5 6 7 8 9 10 11 12 13 14 15 16 17 18 19 20 21 22 23 24 25 26 27 28 29 30 31 32 33 34 35 36 37 38 39 40 41 42 43 44 45 46 47 48 49 50
000
ASUS41 KLWX 130610
RWRLWX

REGIONAL WEATHER ROUNDUP
NATIONAL WEATHER SERVICE BALTIMORE MD/WASHINGTON DC
100 AM EST SAT FEB 13 2016

Note: "FAIR" indicates few or no clouds below 12,000 feet
with no significant weather and/or obstructions to visibility.
 TC=TEMPERATURE CELSIUS

 * =Non NWS site. Station does not report precipitation (e.g. rain,
    snow, etc.), thunder, or fog.

DCZ001-MDZ009-015-VAZ040>042-051-053>054-130700-
WASHINGTON METRO

CITY           SKY/WX    TMP DP  RH WIND       PRES   REMARKS
WASHINGTON NAT FAIR      27  17  66 W8        30.01F WCI  19
DULLES         FAIR      23  17  78 W8        29.99F WCI  14
ANDREWS AFB    CLEAR     26  16  66 W9        29.98F WCI  17
FT BELVOIR     FAIR      24  17  75 CALM      30.01S
QUANTICO       CLOUDY    27  17  66 NW3       30.03S
COLLEGE PARK*  FAIR      28  19  69 W3        30.00S
LEESBURG*      FAIR      27  18  69 W10       29.99F WCI  17
MANASSAS*      FAIR      21  19  93 CALM      30.01S
GAITHERSBURG*  CLEAR     21  12  68 W5        30.00F

$$

MDZ006>007-011-014-130700-
BALTIMORE METRO

CITY           SKY/WX    TMP DP  RH WIND       PRES   REMARKS
BWI AIRPORT    PTCLDY    20  15  81 SW3       29.99S
MD SCIENCE CTR   N/A     24  17  74 MISG      29.98F
MARTIN STATE   PTCLDY    27  21  80 W5        30.01S
ANNAPOLIS      PTCLDY    25  16  68 W6        30.00S
FORT MEADE*    CLEAR     21  18  86 CALM      30.01F

$$

MDZ012-015-019>023-130700-
MARYLAND EASTERN SHORE

CITY           SKY/WX    TMP DP  RH WIND       PRES   REMARKS
OCEAN CITY     CLOUDY    23  19  85 NW3       29.99F
SALISBURY      CLOUDY    23  19  85 SW5       29.99S
BAY BRIDGE AP*   N/A     28  18  64 CALM        N/A
CAMBRIDGE*     PTCLDY    27  18  69 W5        29.99F
EASTON*        PTCLDY    28  17  64 NW9G16    30.03S WCI  19

$$

MDZ017>025-130700-
SOUTHERN MARYLAND

CITY           SKY/WX    TMP DP  RH WIND       PRES   REMARKS
PATUXENT RIVER CLOUDY    27  16  63 NW9       30.01S WCI  18
ST INIGOES     CLOUDY    28  19  69 VRB5      30.01S
LEONARDTOWN*     N/A     27  16  63 MISG        N/A

$$

MDZ003>005-130700-
NORTH CENTRAL MARYLAND

CITY           SKY/WX    TMP DP  RH WIND       PRES   REMARKS
FREDERICK*     CLEAR     23  18  80 W5        30.01F
HAGERSTOWN APT PTCLDY    20  10  65 W10       29.94F WCI   9
WESTMINSTER*   PTCLDY    18  16  93 W6        29.93S

$$

MDZ501>502-130700-
WESTERN MARYLAND

CITY           SKY/WX    TMP DP  RH WIND       PRES   REMARKS
OAKLAND*       MOCLDY     9   3  78 W16G28    29.85R HAZE    WCI  -9
CUMBERLAND*    MOCLDY    23  12  63 W13G26    30.06R WCI  11

$$

VAZ025>031-130700-
SHENANDOAH VALLEY

CITY           SKY/WX    TMP DP  RH WIND       PRES   REMARKS
WINCHESTER*    CLOUDY    27  16  63 NW13      29.97S WCI  16
FRONT ROYAL*   CLOUDY    27  12  54 SW6       29.96F
LURAY*         FAIR      25  16  68 W7        29.96F
NEW MARKET*    CLOUDY    25  13  59 CALM      29.96F
STAUNTON*      FAIR      30   7  37 W14G26    29.97F WCI  19
WAYNESBORO*    CLOUDY    26   5  41 NW9G20    29.95S WCI  16

$$

WVZ021-048>050-054>055-130700-
EASTERN WEST VIRGINIA PANHANDLE

CITY           SKY/WX    TMP DP  RH WIND       PRES   REMARKS
MARTINSBURG    MOCLDY    24  10  55 W12       29.97S WCI  13
PETERSBURG*    LGT SNOW  22  13  69 NW15      30.02R WCI   9

$$

VAZ036>039-050-130700-
CENTRAL FOOTHILLS

CITY           SKY/WX    TMP DP  RH WIND       PRES   REMARKS
CHARLOTTESVILL MOCLDY    30   7  37 NW14G21   29.98S WCI  19
CULPEPER*      MOCLDY    25  20  83 CALM      30.02S
ORANGE*        FAIR      27  19  74 CALM      30.02S
GORDONSVILLE*  MOCLDY    29  13  50 N3        30.00S
WARRENTON*     MOCLDY    25  21  87 CALM      30.00S

$$

VAZ055>057-130700-
NORTH AND CENTRAL PIEDMONT

CITY           SKY/WX    TMP DP  RH WIND       PRES   REMARKS
FREDERICKSBRG* CLOUDY    27  19  70 CALM      30.01S
STAFFORD*      MOCLDY    24  17  74 CALM      30.05S

$$

NCZ024-NYZ072-PAZ021-071-VAZ022-071-130700-
OTHER REGIONAL OBSERVATIONS

CITY           SKY/WX    TMP DP  RH WIND       PRES   REMARKS
NEW YORK CITY  CLOUDY    22   8  55 VRB5      29.92F
PHILADELPHIA   CLOUDY    23  16  74 W10       29.97F WCI  12
PITTSBURGH     CLOUDY    15   8  73 W12       30.03R WCI   2
ROANOKE        FAIR      29   9  43 NW28G37   30.00F WCI  14
RICHMOND       MOCLDY    24  19  81 CALM      30.01S
RALEIGH        MOCLDY    31  23  72 CALM      30.03S

$$

ANZ530>537-130700-
MARINE OBSERVATIONS

STATION/POSITION TIME  TEMP    WIND        PRES
                       AIR SEA DIR/SP/G
                 (UTC) (F)     (DEG/KT/KT) (MB)
THOMAS PT LIGHT  0600   27 36  270/  8/ 10 1016.6F
BALT KEY BRIDGE  0500   25     230/  7/  7 1015.9F
COVE POINT       0500   27     310/  6/  9 1016.8R
LEWISETTA        0500   27 37  290/  5/  6 1016.0R
SOLOMONS ISLAND  0500   29 39  280/  4/  7   N/A
PINEY POINT      0500          310/  9/ 10   N/A

$$




USA.gov is the U.S. government's official web portal to all federal, state and local government web resources and services.